Waarnemingen

Advertentie
Mijn weer
Zwiesel, Duitsland (10796): temperatuur & dauwpunt: 14.04.2018 22:00:00 - 20.04.2018 22:00:00 (CEST)Zwiesel, Duitsland (10796): temperatuur 5cm & temperatuur -5cm: 14.04.2018 22:00:00 - 20.04.2018 22:00:00 (CEST)Zwiesel, Duitsland (10796): temperatuur -20cm & temperatuur -100cm: 14.04.2018 22:00:00 - 20.04.2018 22:00:00 (CEST)Zwiesel, Duitsland (10796): windsnelheid & windstoten: 14.04.2018 22:00:00 - 20.04.2018 22:00:00 (CEST)Zwiesel, Duitsland (10796): windrichting: 14.04.2018 22:00:00 - 20.04.2018 22:00:00 (CEST)Zwiesel, Duitsland (10796): luchtdruk: 14.04.2018 22:00:00 - 20.04.2018 22:00:00 (CEST)Zwiesel, Duitsland (10796): zicht: 14.04.2018 22:00:00 - 20.04.2018 22:00:00 (CEST)Zwiesel, Duitsland (10796): Zonneschijnduur: 14.04.2018 22:00:00 - 20.04.2018 22:00:00 (CEST)Zwiesel, Duitsland (10796): neerslag: 14.04.2018 22:00:00 - 20.04.2018 22:00:00 (CEST)
Datum & Tijd tt [°C] td [°C] tt 5cm [°C] tt -5cm [°C] tt -20cm [°C] tt -100cm [°C] ff [km/u] ff [kn] fx [km/u] fx [kn] dd ppp [hPa] vv [km] sd [min] rr [mm]
20.04.2018 22:00:00 13,6 7,1 8,9 17,1 14,7 6,7 5 3 7 4 N 1022,9 64 0 0,0
20.04.2018 21:00:00 16,4 8,0 10,9 18,4 14,7 6,7 3 1 5 3 NNO 1022,2 59 0 0,0
20.04.2018 20:00:00 19,7 7,4 15,0 19,8 14,5 6,7 4 2 11 6 N 1021,1 65 39 0,0
20.04.2018 19:00:00 24,3 5,4 23,5 20,8 14,2 6,7 9 5 19 11 ZW 1020,1 69 60 0,0
20.04.2018 18:00:00 25,0 4,4 26,2 21,5 13,7 6,7 11 6 25 13 WZW 1020,3 49 60 0,0
20.04.2018 17:00:00 25,5 4,5 28,3 21,8 13,2 6,7 13 7 22 12 ZW 1020,7 39 60 0,0
20.04.2018 16:00:00 25,8 5,0 29,7 21,6 12,6 6,7 13 7 24 13 ZZW 1021,1 27 60 0,0
20.04.2018 15:00:00 24,8 3,4 29,9 20,9 11,9 6,7 12 6 22 12 ZZW 1022,0 24 60 0,0
20.04.2018 14:00:00 25,2 5,0 30,5 19,7 11,4 6,7 8 4 23 13 ZZO 1022,3 58 60 0,0
20.04.2018 13:00:00 24,5 3,7 28,6 18,3 10,9 6,7 14 8 28 15 Z 1023,1 25 60 0,0
20.04.2018 12:00:00 22,5 7,8 26,5 16,4 10,5 6,6 8 5 15 8 ZW 1023,9 36 60 0,0
20.04.2018 11:00:00 21,3 7,6 23,6 14,2 10,3 6,6 3 2 7 4 ZW 1024,3 52 60 0,0
20.04.2018 10:00:00 17,5 8,2 19,9 11,8 10,3 6,6 3 1 5 3 NW 1025,4 38 60 0,0
20.04.2018 09:00:00 12,1 6,4 14,5 9,8 10,5 6,6 3 2 5 3 W 1027,1 35 60 0,0
20.04.2018 08:00:00 8,2 5,0 8,2 8,8 10,8 6,6 2 1 8 4 N 1028,2 29 60 0,0
20.04.2018 07:00:00 5,9 4,6 3,5 8,8 11,1 6,6 3 2 6 3 ZW 1029,0 20 0 0,0
20.04.2018 06:00:00 5,6 4,2 2,5 9,4 11,4 6,6 2 1 5 3 N 1029,0 20 0 0,0
20.04.2018 05:00:00 6,8 4,9 3,8 9,9 11,7 6,6 3 1 6 3 ZZW 1028,7 32 0 0,0
20.04.2018 04:00:00 7,3 5,1 3,7 10,6 12,0 6,6 2 1 7 4 N 1028,9 35 0 0,0
20.04.2018 03:00:00 8,6 5,2 5,6 11,2 12,2 6,6 3 2 18 10 Z 1028,9 35 0 0,0
20.04.2018 02:00:00 10,2 5,8 6,1 11,9 12,5 6,6 5 3 21 12 NNO 1028,8 46 0 0,0
20.04.2018 01:00:00 12,6 6,2 10,4 12,4 12,8 6,6 13 7 19 11 NNO 1028,6 54 0 0,0
20.04.2018 00:00:00 11,5 6,0 8,0 13,1 13,0 6,5 9 5 15 8 NNO 1029,1 53 0 0,0
19.04.2018 23:00:00 12,1 6,0 7,4 14,1 13,2 6,5 3 2 10 5 NNW 1029,2 67 0 0,0
19.04.2018 22:00:00 13,8 6,4 8,9 15,1 13,3 6,5 5 3 9 5 N 1028,9 56 0 0,0
19.04.2018 21:00:00 16,2 5,8 10,6 16,3 13,2 6,5 4 2 14 8 O 1028,0 63 0 0,0
19.04.2018 20:00:00 19,2 5,5 16,7 17,5 13,0 6,5 9 5 27 15 ONO 1026,8 64 53 0,0
19.04.2018 19:00:00 20,7 6,0 20,4 18,5 12,7 6,5 13 7 23 13 O 1026,2 53 60 0,0
19.04.2018 18:00:00 22,0 6,5 24,4 19,1 12,3 6,5 12 7 32 18 NO 1025,9 49 60 0,0
19.04.2018 17:00:00 22,3 6,6 24,7 19,4 11,8 6,5 15 8 32 17 NNO 1025,9 48 60 0,0
19.04.2018 16:00:00 22,3 6,8 25,0 19,5 11,2 6,5 17 9 33 18 NNO 1026,3 35 60 0,0
19.04.2018 15:00:00 23,1 4,0 27,6 18,7 10,6 6,5 9 5 21 11 ZO 1026,8 35 60 0,0
19.04.2018 14:00:00 22,4 2,0 27,7 17,6 10,1 6,5 10 5 21 11 OZO 1027,5 38 60 0,0
19.04.2018 13:00:00 22,2 1,6 26,0 16,2 9,6 6,4 9 5 19 10 WZW 1028,0 45 60 0,0
19.04.2018 12:00:00 20,7 -0,4 24,0 14,4 9,2 6,4 7 4 14 8 W 1028,9 52 60 0,0
19.04.2018 11:00:00 18,8 2,7 21,2 12,2 9,1 6,4 5 3 9 5 WNW 1029,5 70 60 0,0
19.04.2018 10:00:00 15,6 6,0 18,0 9,8 9,1 6,4 3 2 6 3 NNW 1030,3 48 60 0,0
19.04.2018 09:00:00 11,0 4,2 13,4 7,8 9,3 6,4 2 1 6 3 WZW 1031,8 45 60 0,0
19.04.2018 08:00:00 6,3 1,8 8,0 6,7 9,6 6,4 3 2 6 4 ZO 1033,3 38 59 0,0
19.04.2018 07:00:00 2,4 0,4 0,0 6,8 9,9 6,4 2 1 8 4 ZZW 1034,5 35 0 0,0
19.04.2018 06:00:00 3,0 0,8 -0,1 7,3 10,3 6,4 4 2 7 4 NNO 1034,3 35 0 0,0
19.04.2018 05:00:00 3,5 0,7 1,0 7,9 10,6 6,4 6 3 9 5 ZO 1034,3 39 0 0,0
19.04.2018 04:00:00 4,8 1,4 1,4 8,5 10,9 6,4 6 3 10 6 OZO 1034,2 52 0 0,0
19.04.2018 03:00:00 5,0 1,8 1,2 9,2 11,3 6,4 3 2 7 4 Z 1034,4 50 0 0,0
19.04.2018 02:00:00 5,9 2,1 1,7 9,9 11,6 6,4 4 2 5 3 ONO 1034,4 57 0 0,0
19.04.2018 01:00:00 7,0 2,3 3,0 10,8 11,9 6,4 4 2 8 4 N 1034,2 53 0 0,0
19.04.2018 00:00:00 9,1 2,3 5,2 11,6 12,2 6,3 4 2 16 9 ONO 1033,3 68 0 0,0
18.04.2018 23:00:00 11,0 3,3 8,5 12,5 12,4 6,3 11 6 21 11 NNO 1032,8 55 0 0,0
18.04.2018 22:00:00 12,9 3,0 10,7 13,5 12,5 6,3 14 8 19 10 NNO 1032,3 67 0 0,0
18.04.2018 21:00:00 14,5 2,0 11,8 14,6 12,6 6,3 13 7 17 9 NO 1031,8 70 0 0,0
18.04.2018 20:00:00 16,9 1,2 12,3 15,8 12,5 6,3 5 3 26 14 NO 1030,8 64 52 0,0
18.04.2018 19:00:00 18,8 0,1 17,9 16,9 12,3 6,3 16 9 29 16 NNO 1030,2 53 60 0,0
18.04.2018 18:00:00 19,7 0,8 21,1 17,8 11,9 6,3 16 9 26 14 NNO 1030,0 64 60 0,0
18.04.2018 17:00:00 20,2 0,5 22,1 18,3 11,5 6,3 16 9 29 15 NO 1029,7 47 60 0,0
18.04.2018 16:00:00 20,5 2,4 23,0 18,5 11,0 6,3 16 9 31 17 NNO 1029,9 45 60 0,0
18.04.2018 15:00:00 20,7 2,0 24,2 18,3 10,4 6,3 9 5 24 13 N 1030,0 42 60 0,0
18.04.2018 14:00:00 19,8 2,5 23,7 17,5 9,8 6,3 13 7 22 12 NNO 1030,5 35 60 0,0
18.04.2018 13:00:00 19,1 0,9 22,7 16,2 9,3 6,3 10 6 23 13 NO 1030,9 38 60 0,0
18.04.2018 12:00:00 18,5 5,7 21,7 14,5 8,9 6,2 5 3 15 8 ZW 1031,0 50 60 0,0
18.04.2018 11:00:00 17,3 7,1 19,9 12,2 8,7 6,2 4 2 9 5 O 1031,5 19 60 0,0
18.04.2018 10:00:00 13,4 7,0 16,1 9,7 8,7 6,2 3 2 5 3 WNW 1032,6 29 60 0,0
18.04.2018 09:00:00 9,0 4,9 10,0 7,7 8,9 6,2 2 1 4 2 W 1033,6 24 60 0,0
18.04.2018 08:00:00 5,2 2,9 6,0 6,6 9,2 6,2 0 0 5 3 N 1034,5 11 57 0,0
18.04.2018 07:00:00 2,6 2,2 1,1 6,7 9,5 6,2 0 0 5 3 N 1034,8 4,3 0 0,0
18.04.2018 06:00:00 3,1 2,9 0,9 7,2 9,8 6,2 0 0 6 4 N 1034,3 3,3 0 0,0
18.04.2018 05:00:00 3,6 3,4 1,0 7,7 10,2 6,2 3 2 8 4 ZO 1033,9 3,7 0 0,0
18.04.2018 04:00:00 3,9 3,6 1,6 8,3 10,5 6,2 4 2 6 3 ZO 1033,6 7 0 0,0
18.04.2018 03:00:00 4,8 4,4 1,7 8,9 10,8 6,2 3 1 6 3 ONO 1033,2 7 0 0,0
18.04.2018 02:00:00 5,7 4,8 3,7 9,6 11,1 6,2 5 3 9 5 O 1032,6 13 0 0,0
18.04.2018 01:00:00 6,5 5,3 3,2 10,3 11,4 6,2 2 1 7 4 W 1032,0 20 0 0,0
18.04.2018 00:00:00 7,0 5,5 4,2 11,2 11,6 6,2 5 3 7 4 OZO 1031,6 21 0 0,0
17.04.2018 23:00:00 8,2 6,2 5,1 12,1 11,9 6,1 3 1 8 4 ZO 1030,7 24 0 0,0
17.04.2018 22:00:00 9,9 6,2 7,2 13,2 12,0 6,1 5 3 11 6 NO 1029,7 35 0 0,0
17.04.2018 21:00:00 12,0 6,3 8,2 14,3 12,0 6,1 5 3 14 7 NNO 1028,4 50 0 0,0
17.04.2018 20:00:00 14,1 6,3 11,8 15,5 11,9 6,1 9 5 16 9 NNO 1026,7 53 48 0,0
17.04.2018 19:00:00 17,4 4,9 17,2 16,4 11,7 6,1 8 4 16 9 NNW 1025,2 61 48 0,0
17.04.2018 18:00:00 17,7 5,1 19,3 16,8 11,4 6,1 9 5 15 8 W 1024,8 54 30 0,0
17.04.2018 17:00:00 17,2 5,6 17,6 17,5 11,0 6,1 2 1 16 9 ZZW 1024,8 59 19 0,0
17.04.2018 16:00:00 17,6 6,8 23,7 17,3 10,6 6,1 9 5 17 9 ZZW 1024,5 20 43 0,0
17.04.2018 15:00:00 16,8 6,6 18,2 16,9 10,2 6,1 5 3 18 10 NW 1024,8 61 36 0,0
17.04.2018 14:00:00 16,0 8,1 17,9 16,0 9,7 6,1 9 5 18 10 WZW 1025,0 55 2 0,0
17.04.2018 13:00:00 15,9 7,4 17,7 16,3 9,2 6,1 8 5 17 9 W 1024,8 62 42 0,0
17.04.2018 12:00:00 16,2 8,7 20,6 14,2 8,9 6,1 9 5 17 9 ZZW 1024,8 31 60 0,0
17.04.2018 11:00:00 13,4 7,9 17,1 11,9 8,7 6,1 6 4 9 5 ZW 1025,2 39 60 0,0
17.04.2018 10:00:00 9,3 7,8 11,6 9,8 8,7 6,1 2 1 6 3 NW 1025,7 3,2 13 0,0
17.04.2018 09:00:00 6,3 6,0 8,0 8,7 8,8 6,0 2 1 5 3 ZZO 1026,3 0,2 0 0,0
17.04.2018 08:00:00 5,3 5,3 6,5 8,2 9,0 6,0 0 0 6 3 N 1026,0 0,2 0 0,0
17.04.2018 07:00:00 4,5 4,4 4,7 8,3 9,1 6,0 4 2 5 3 OZO 1025,5 0,2 0 0,0
17.04.2018 06:00:00 4,7 4,7 4,7 8,6 9,3 6,0 2 1 8 5 ZZO 1024,7 0,1 0 0,0
17.04.2018 05:00:00 5,5 5,3 5,7 8,8 9,4 6,0 3 2 6 3 NO 1023,9 0,1 0 0,0
17.04.2018 04:00:00 5,6 5,6 5,6 9,2 9,5 6,0 4 2 13 7 ZZW 1023,5 0,4 0 0,0
17.04.2018 03:00:00 6,4 6,4 5,7 9,6 9,7 6,0 6 3 9 5 NO 1022,9 2,3 0 0,0
17.04.2018 02:00:00 7,5 7,4 7,7 9,7 9,8 6,0 2 1 11 6 NNO 1022,3 0,2 0 0,0
17.04.2018 01:00:00 8,1 8,0 8,2 9,9 9,9 6,0 5 3 13 7 N 1021,4 0,4 0 0,0
17.04.2018 00:00:00 8,2 8,0 7,5 10,3 10,0 6,0 3 2 10 6 NNO 1020,9 2,6 0 0,0
16.04.2018 23:00:00 8,8 8,5 7,4 10,8 10,1 6,0 0 0 4 2 N 1019,8 0,1 0 0,0
16.04.2018 22:00:00 9,6 9,5 8,8 11,3 10,2 5,9 4 2 8 4 W 1019,2 0,3 0 0,0
16.04.2018 21:00:00 10,3 9,8 9,9 11,7 10,2 5,9 3 2 5 3 WZW 1018,4 9 0 0,1
16.04.2018 20:00:00 10,8 10,1 10,6 12,0 10,2 5,9 4 2 6 3 NO 1017,2 13 0 0,0
16.04.2018 19:00:00 11,5 10,3 11,6 12,2 10,1 5,9 5 3 6 4 O 1016,3 21 1 0,0
16.04.2018 18:00:00 11,9 9,6 12,3 12,2 10,1 5,9 4 2 12 6 WZW 1015,8 46 0 0,0
16.04.2018 17:00:00 11,8 9,6 12,0 12,2 10,0 5,9 4 2 23 12 WNW 1015,2 43 0 0,0
16.04.2018 16:00:00 12,0 9,0 12,0 12,1 10,0 5,9 10 6 22 12 W 1014,8 43 0 0,3
16.04.2018 15:00:00 11,5 10,1 11,4 12,3 9,9 5,9 7 4 14 8 WZW 1014,7 11 0 0,1
16.04.2018 14:00:00 11,7 9,5 11,9 12,4 9,8 5,9 10 5 23 12 W 1014,1 23 0 0,1
16.04.2018 13:00:00 11,6 9,7 12,8 11,8 9,8 5,9 14 7 19 10 W 1013,6 22 0 1,0
16.04.2018 12:00:00 10,7 9,7 11,2 11,4 9,8 5,9 9 5 19 10 W 1013,7 4,0 0 1,4
16.04.2018 11:00:00 11,3 10,2 12,0 11,1 9,8 5,9 8 4 13 7 W 1012,6 9 0 0,2
16.04.2018 10:00:00 10,5 9,8 10,6 11,0 9,8 5,9 8 4 11 6 ZZW 1012,4 5 0 1,0
16.04.2018 09:00:00 10,5 9,9 10,7 10,8 9,9 5,8 6 4 11 6 ZZW 1011,7 4,1 0 1,1
16.04.2018 08:00:00 10,2 10,0 10,4 10,6 10,0 5,8 3 2 5 3 WZW 1011,5 1,6 0 1,1
16.04.2018 07:00:00 10,2 9,8 10,2 10,6 10,1 5,8 3 2 7 4 O 1011,0 4,2 0 0,9
16.04.2018 06:00:00 9,7 9,2 9,6 10,7 10,2 5,8 3 1 4 2 ZW 1010,7 6 0 0,2
16.04.2018 05:00:00 9,9 9,3 9,5 10,8 10,3 5,8 3 1 5 3 NW 1010,5 9 0 0,1
16.04.2018 04:00:00 10,2 9,4 9,4 11,0 10,4 5,8 5 3 6 4 ZZO 1010,4 12 0 0,0
16.04.2018 03:00:00 10,5 9,4 9,4 11,3 10,6 5,8 5 3 16 9 Z 1009,8 13 0 0,0
16.04.2018 02:00:00 11,1 9,3 9,3 11,7 10,7 5,8 6 4 10 6 NNO 1009,5 17 0 0,0
16.04.2018 01:00:00 11,6 9,8 10,6 12,1 10,7 5,8 4 2 9 5 NO 1009,8 18 0 0,5
16.04.2018 00:00:00 13,1 8,4 11,8 12,4 10,8 5,8 4 2 10 5 WZW 1009,8 35 0 0,0
15.04.2018 23:00:00 14,4 8,2 12,8 12,7 10,9 5,8 4 2 13 7 NO 1009,2 40 0 0,0
15.04.2018 22:00:00 15,1 7,9 13,8 13,1 10,9 5,8 9 5 18 10 NNO 1009,3 45 0 0,0
15.04.2018 21:00:00 15,5 7,9 14,2 13,7 10,9 5,8 9 5 20 11 NNO 1009,0 52 0 0,0
15.04.2018 20:00:00 16,3 8,0 14,6 14,4 10,7 5,7 7 4 21 11 NO 1008,9 48 0 0,0
15.04.2018 19:00:00 17,4 7,6 16,4 15,2 10,5 5,7 10 5 24 13 NNO 1008,6 52 0 0,0
15.04.2018 18:00:00 19,0 5,9 18,9 15,5 10,2 5,7 5 3 9 5 N 1008,4 47 0 0,0
15.04.2018 17:00:00 19,5 3,5 20,6 15,6 9,8 5,7 8 5 19 11 NW 1008,7 56 26 0,0
15.04.2018 16:00:00 19,7 2,5 23,8 14,9 9,5 5,7 5 3 14 8 ZW 1009,8 66 33 0,0
15.04.2018 15:00:00 18,5 2,3 19,9 14,6 9,1 5,7 11 6 19 10 Z 1010,9 70 0 0,0
15.04.2018 14:00:00 19,0 1,2 20,5 14,5 8,7 5,7 12 7 25 13 ZZW 1011,0 70 30 0,0
15.04.2018 13:00:00 19,3 2,2 23,5 13,5 8,3 5,7 14 7 26 14 Z 1011,5 48 35 0,0
15.04.2018 12:00:00 18,3 3,1 21,2 12,2 8,0 5,7 10 5 16 8 ZW 1011,5 58 53 0,0
15.04.2018 11:00:00 15,1 5,0 18,6 9,4 8,0 5,7 5 3 8 4 NW 1012,8 55 54 0,0
15.04.2018 10:00:00 8,5 4,6 10,6 7,4 8,1 5,7 4 2 6 3 W 1015,0 48 9 0,0
15.04.2018 09:00:00 5,5 3,2 6,1 6,6 8,3 5,7 3 2 6 4 WZW 1016,4 46 0 0,0
15.04.2018 08:00:00 3,4 2,1 3,4 6,2 8,6 5,6 0 0 4 2 N 1017,2 53 0 0,0
15.04.2018 07:00:00 2,9 1,8 1,7 6,3 8,9 5,6 3 1 8 5 WNW 1017,3 70 0 0,0
15.04.2018 06:00:00 2,8 1,6 1,1 6,7 9,2 5,6 3 2 8 5 OZO 1017,2 70 0 0,0
15.04.2018 05:00:00 3,1 1,7 0,2 7,2 9,5 5,6 2 1 6 4 ZO 1018,3 70 0 0,0
15.04.2018 04:00:00 4,0 2,1 1,4 7,8 9,7 5,6 4 2 12 7 NNW 1018,0 70 0 0,0
15.04.2018 03:00:00 4,4 1,8 2,3 8,3 10,0 5,6 6 3 16 8 OZO 1018,5 70 0 0,0
15.04.2018 02:00:00 5,3 3,1 2,2 9,0 10,3 5,6 2 1 8 4 ONO 1019,3 70 0 0,0
15.04.2018 01:00:00 5,5 3,0 3,0 9,7 10,6 5,6 6 3 10 5 OZO 1020,2 70 0 0,0
15.04.2018 00:00:00 6,6 3,5 3,7 10,4 10,8 5,6 1 1 10 6 NW 1020,3 67 0 0,0
14.04.2018 23:00:00 8,5 4,2 6,0 11,3 11,0 5,6 6 3 14 7 ONO 1019,8 70 0 0,0
14.04.2018 22:00:00 10,0 4,2 6,4 12,3 11,1 5,6 6 3 13 7 ONO 1019,5 70 0 0,0

tt = temperatuur
td = dauwpunt
tt 5cm = temperatuur 5cm
tt -5cm = temperatuur -5cm
tt -20cm = temperatuur -20cm
tt -100cm = temperatuur -100cm
ff = windsnelheid
fx = windstoten
dd = windrichting
ppp = luchtdruk
vv = zicht
sd = Zonneschijnduur
rr = neerslag

Weerstations in de omgeving